DateTimeUTC,F1_A11,F1_S11,BsB_S11,BsG_S11,BsR_S11,BbsB_S11,BbsG_S11,BbsR_S11,BaB_A11,BaG_A11,BaR_A11,Tu_S11,T_S11,Uu_S11,U_S11,P_S11,T1_A11
2021-09-14T06:00:00Z,00000200,21000000,,,,,,,0000.02,-000.18,-000.46,18.5,25.5,00.9,00.6,0659.1,31.1
2021-09-14T06:01:00Z,00000200,21000000,,,,,,,-000.28,-000.21,-000.10,18.5,25.5,00.9,00.6,0659.1,31.1
2021-09-14T06:02:00Z,00000200,21000000,,,,,,,0000.11,0000.04,-000.33,18.5,25.5,00.9,00.6,0659.1,31.1
2021-09-14T06:03:00Z,00000200,61000000,,,,,,,0000.06,0000.05,0000.46,18.5,25.5,00.9,00.6,0659.1,31.1
2021-09-14T06:04:00Z,00000200,41000000,0001.63,0001.06,0000.90,0000.04,-000.09,0000.04,0000.22,0000.36,0000.08,18.6,25.3,01.1,00.8,0660.0,31.1
2021-09-14T06:05:00Z,00000200,01000000,0001.23,0000.83,0000.47,0000.11,0000.33,0000.13,0000.45,0000.47,0000.71,18.6,25.3,01.1,00.8,0660.1,31.1
2021-09-14T06:06:00Z,00000200,01000000,0001.45,0000.76,0000.76,0000.26,0000.23,0000.22,0000.20,0000.46,-000.22,18.6,25.3,01.2,00.8,0660.1,31.0
2021-09-14T06:07:00Z,00000200,01000000,0002.13,0001.19,0000.71,0000.24,0000.11,0000.32,0000.50,0000.35,0000.54,18.6,25.3,01.1,00.7,0660.1,31.1
2021-09-14T06:08:00Z,00000200,01000000,0001.64,0001.01,0000.65,0000.37,-000.01,0000.35,0000.78,0000.22,0000.18,18.6,25.2,01.2,00.8,0660.0,31.0
2021-09-14T06:09:00Z,00000200,01000000,0001.72,0001.33,0000.76,0000.07,0000.39,0000.27,0000.29,0000.19,0000.50,18.6,25.2,01.2,00.8,0660.0,31.0
2021-09-14T06:10:00Z,00000200,01000000,0002.57,0000.66,0001.02,0000.20,0000.35,0000.25,0000.38,0000.41,0000.41,18.6,25.2,01.2,00.8,0660.0,31.0
2021-09-14T06:11:00Z,00000200,01000000,0001.50,0000.79,0000.96,-000.09,0000.01,0000.03,0000.59,0001.10,0000.65,18.6,25.2,01.2,00.8,0660.0,31.1
2021-09-14T06:12:00Z,00000200,01000000,0001.26,0000.82,0000.83,0000.04,0000.19,0000.11,0000.67,0000.45,0000.35,18.7,25.2,01.2,00.8,0660.0,31.1
2021-09-14T06:13:00Z,00000200,01000000,0001.86,0000.85,0000.79,-000.01,0000.31,0000.46,0000.27,-000.10,-000.09,18.8,25.3,01.2,00.8,0659.9,31.1
2021-09-14T06:14:00Z,00000200,01000000,0001.59,0001.00,0000.64,0000.10,0000.18,0000.30,0000.31,0000.88,0000.48,18.8,25.3,01.2,00.8,0660.0,31.1
2021-09-14T06:15:00Z,00000200,01000000,0001.22,0000.99,0000.79,0000.57,-000.04,0000.19,0000.36,0000.27,0000.49,18.9,25.3,01.1,00.8,0660.0,31.1
2021-09-14T06:16:00Z,00000200,01000000,0001.51,0000.99,0001.05,0000.66,0000.23,0000.23,0000.32,-000.25,-000.27,18.9,25.3,01.2,00.8,0660.0,31.1
2021-09-14T06:17:00Z,00000200,01000000,0001.63,0001.10,0001.02,0000.70,-000.06,0000.21,0000.12,0000.11,0000.27,18.8,25.3,01.2,00.8,0660.0,31.1
2021-09-14T06:18:00Z,00000200,01000000,0002.01,0001.23,0001.22,0000.09,-000.12,0000.39,0000.41,0000.68,0000.07,18.8,25.3,01.2,00.8,0659.9,31.1
2021-09-14T06:19:00Z,00000200,01000000,0001.76,0001.23,0000.46,0000.24,0000.24,0000.02,-000.02,-000.32,0000.02,18.8,25.3,01.2,00.8,0660.0,31.1
2021-09-14T06:20:00Z,00000200,01000000,0001.77,0001.19,0000.85,-000.18,0000.28,0000.30,0000.27,0000.45,0000.44,18.8,25.3,01.1,00.8,0660.0,31.1
2021-09-14T06:21:00Z,00000200,01000000,0001.44,0000.91,0000.87,0000.15,0000.22,0000.06,0000.48,0000.45,0000.27,18.7,25.3,01.2,00.8,0660.0,31.0
2021-09-14T06:22:00Z,00000200,01000000,0001.66,0001.02,0000.64,0000.42,0000.55,0000.01,0000.43,0000.46,0000.20,18.7,25.3,01.3,00.9,0660.0,31.1
2021-09-14T06:23:00Z,00000200,01000000,0001.83,0000.91,0001.27,0000.43,0000.04,0000.46,0000.28,0000.37,0000.00,18.7,25.2,01.2,00.8,0660.0,31.0
2021-09-14T06:24:00Z,00000200,01000000,0001.74,0000.77,0000.80,-000.23,0000.18,0000.25,0000.62,0000.55,0000.45,18.7,25.2,01.2,00.8,0660.0,31.1
2021-09-14T06:25:00Z,00000200,01000000,0002.32,0001.05,0000.81,-000.28,0000.08,0000.23,0000.62,0000.14,0000.56,18.7,25.2,01.2,00.8,0660.0,31.0
2021-09-14T06:26:00Z,00000200,01000000,0002.01,0001.15,0000.50,0000.23,0000.22,0000.20,0000.42,0001.11,0000.75,18.7,25.2,01.2,00.8,0660.0,31.1
2021-09-14T06:27:00Z,00000200,01000000,0001.20,0001.52,0000.87,-000.26,-000.07,0000.29,0000.43,-000.05,0000.42,18.7,25.3,01.3,00.9,0660.0,31.1
2021-09-14T06:28:00Z,00000200,01000000,0001.36,0000.91,0000.53,0000.05,0000.05,0000.23,0000.06,0000.55,0000.08,18.8,25.3,01.3,00.9,0660.0,31.1
2021-09-14T06:29:00Z,00000200,01000000,0001.76,0001.12,0000.80,0000.07,0000.23,0000.28,0000.84,0000.60,0000.45,18.8,25.3,01.2,00.8,0659.9,31.1
2021-09-14T06:30:00Z,00000200,01000000,0002.32,0000.85,0000.54,-000.04,0000.15,0000.08,0000.25,0000.19,0000.15,18.8,25.3,01.2,00.8,0660.0,31.1
2021-09-14T06:31:00Z,00000200,01000000,0001.27,0000.96,0000.71,0000.05,0000.65,0000.09,0000.55,0000.11,0000.66,18.8,25.3,01.2,00.8,0660.0,31.1
2021-09-14T06:32:00Z,00000200,01000000,0002.33,0000.88,0000.82,-000.53,0000.40,0000.12,0000.21,0000.65,-000.10,18.8,25.3,01.3,00.9,0660.0,31.1
2021-09-14T06:33:00Z,00000200,01000000,0002.75,0001.05,0000.90,0000.33,0000.29,0000.28,0000.60,0000.46,0000.65,18.7,25.3,01.3,00.9,0659.9,31.0
2021-09-14T06:34:00Z,00000200,01000000,0001.48,0001.22,0000.79,0000.04,0000.04,0000.01,0000.39,0000.30,0000.25,18.7,25.3,01.4,01.0,0659.9,31.0
2021-09-14T06:35:00Z,00000200,01000000,0001.37,0001.15,0000.83,0000.66,0000.25,0000.26,0000.99,0000.73,0000.48,18.7,25.2,01.5,01.0,0659.9,31.0
2021-09-14T06:36:00Z,00000200,01000000,0002.42,0001.14,0001.01,-000.01,0000.46,0000.39,0000.67,0000.58,0000.15,18.7,25.2,01.7,01.1,0659.9,31.0
2021-09-14T06:37:00Z,00000200,01000000,0002.07,0001.13,0000.88,0000.29,0000.20,0000.04,0000.39,0000.64,0000.64,18.7,25.2,01.7,01.2,0659.9,31.0
2021-09-14T06:38:00Z,00000200,01000000,0001.60,0001.08,0001.07,0000.32,0000.11,0000.34,0000.86,0000.37,0000.27,18.7,25.2,01.8,01.2,0659.8,31.0
2021-09-14T06:39:00Z,00000200,01000000,0001.51,0000.94,0000.92,-000.15,0000.23,0000.24,0000.46,0000.73,0000.57,18.7,25.2,02.0,01.3,0659.8,31.0
2021-09-14T06:40:00Z,00000200,01000000,0002.11,0000.72,0000.52,-000.14,0000.19,0000.06,0001.12,0001.06,0000.48,18.6,25.2,02.1,01.4,0659.8,31.0
2021-09-14T06:41:00Z,00000200,00000000,0001.87,0000.53,0000.40,0000.32,0000.32,0000.23,0000.88,0001.20,0000.97,18.7,25.2,02.3,01.6,0659.8,31.1
2021-09-14T06:42:00Z,00000200,00000000,0001.22,0000.88,0000.54,-000.19,0000.18,0000.17,0000.69,0000.15,0000.65,18.7,25.2,02.4,01.6,0659.8,31.1
2021-09-14T06:43:00Z,00000200,00000000,0001.48,0000.92,0000.63,0000.15,0000.21,0000.13,0000.40,0000.48,0000.26,18.8,25.3,02.7,01.8,0659.8,31.1
2021-09-14T06:44:00Z,00000200,00000000,0000.42,0000.59,0000.33,-000.92,0000.16,-000.01,0000.85,0000.54,0000.33,18.8,25.2,02.7,01.8,0659.8,31.1
2021-09-14T06:45:00Z,00000200,00000000,0000.86,0000.17,0000.77,0000.07,0000.10,0000.26,0000.42,0000.42,0000.57,18.8,25.2,02.7,01.8,0659.8,31.1
2021-09-14T06:46:00Z,00000200,00000000,0001.13,0000.66,0000.66,0000.03,0000.42,0000.47,0000.04,0000.30,-000.29,18.8,25.3,02.8,01.9,0659.7,31.0
2021-09-14T06:47:00Z,00000200,00000000,0001.71,0000.46,0000.63,-000.28,0000.02,0000.37,0000.67,0000.08,0000.56,18.8,25.2,02.8,01.9,0659.7,31.1
2021-09-14T06:48:00Z,00000200,00000000,0001.12,0000.54,0000.59,0000.67,-000.07,-000.00,0000.04,0000.54,0000.16,18.8,25.2,02.9,01.9,0659.7,31.1
2021-09-14T06:49:00Z,00000200,00000000,0001.12,0000.30,0000.25,0000.01,0000.14,0000.05,0000.18,0000.10,0000.33,18.8,25.2,02.8,01.9,0659.7,31.1
2021-09-14T06:50:00Z,00000200,00000000,0000.99,0000.28,0000.42,0000.05,0000.40,0000.04,0000.09,0000.12,0000.13,18.7,25.2,03.0,02.0,0659.7,31.0
2021-09-14T06:51:00Z,00000200,00000000,0000.88,0000.31,0000.53,0000.55,0000.30,0000.20,0000.55,-000.04,-000.03,18.7,25.2,02.9,02.0,0659.6,31.0
2021-09-14T06:52:00Z,00000200,00000000,0001.41,0000.39,0000.63,-000.30,0000.14,0000.25,0000.01,0000.83,0000.17,18.7,25.2,03.0,02.0,0659.6,31.0
2021-09-14T06:53:00Z,00000200,00000000,0001.12,0000.62,0000.59,-000.06,0000.16,0000.27,0000.60,-000.02,0000.47,18.7,25.2,03.0,02.0,0659.6,31.0
2021-09-14T06:54:00Z,00000200,00000000,0001.23,0000.26,0000.76,-000.35,-000.06,0000.32,-000.21,0000.42,-000.03,18.7,25.2,03.1,02.1,0659.6,31.0
2021-09-14T06:55:00Z,00000200,00000000,0001.26,0000.35,0000.54,0000.12,0000.06,0000.26,0000.75,0000.51,0000.46,18.7,25.2,03.0,02.0,0659.5,31.1
2021-09-14T06:56:00Z,00000200,00000000,0000.70,0000.75,0000.55,0000.15,0000.04,0000.40,0000.50,0000.48,0000.60,18.7,25.2,03.2,02.1,0659.5,31.1
2021-09-14T06:57:00Z,00000200,40000000,,,,,,,-001.17,-001.06,-000.68,18.8,25.2,03.3,02.2,0659.5,31.1
2021-09-14T06:58:00Z,00000200,60000000,,,,,,,0000.34,0000.27,0000.61,18.6,25.4,02.5,01.6,0658.6,31.1
2021-09-14T06:59:00Z,00000200,20000000,,,,,,,0000.33,0000.42,-000.04,18.6,25.5,02.6,01.7,0658.6,31.1
